This demonstration page uses our WeatherBlox Daily Observations layout. Learn more.

Left ArrowRight Arrow

39.51506, -84.39828

Hourly Observations for September 1, 2016

Temp ( °F °C ) Dew Point ( °F °C ) Humidity (%) Winds ( mph kmh ) Pressure ( in mb ) Visibility ( mi km ) Precip ( " mm )
12:15 am 00:15 Clear 74 23.6 69 20.8 84 84 N 5 7 29.94 1014 7 11 N/A
12:35 am 00:35 Clear 73 22.7 68 19.8 84 84 N 3 6 29.94 1014 7 11 N/A
12:55 am 00:55 Clear 72 22.3 67 19.5 84 84 N 5 7 29.97 1015 7 11 N/A
1:15 am 01:15 Clear 72 22.3 67 19.5 84 84 N 3 6 29.94 1014 7 11 N/A
1:35 am 01:35 Clear 72 22.3 67 19.4 84 84 N 5 7 29.97 1015 10 16 N/A
1:55 am 01:55 Clear 72 22.3 67 19.2 83 83 N 5 7 29.97 1015 10 16 N/A
2:15 am 02:15 Clear 71 21.6 65 18.5 83 83 N 3 6 29.97 1015 10 16 N/A
2:35 am 02:35 Clear 71 21.6 65 18.5 83 83 N 5 7 29.97 1015 10 16 N/A
2:55 am 02:55 Clear 71 21.6 65 18.5 83 83 N 3 6 29.97 1015 10 16 N/A
3:15 am 03:15 Clear 69 20.8 64 17.8 83 83 N 7 11 29.97 1015 10 16 N/A
3:35 am 03:35 Mostly Cloudy 71 21.6 65 18.3 82 82 N 7 11 29.97 1015 10 16 N/A
3:55 am 03:55 Cloudy 71 21.6 64 17.9 80 80 N 10 17 29.97 1015 10 16 N/A
4:15 am 04:15 Cloudy 69 20.8 63 17 79 79 N 9 15 29.97 1015 10 16 N/A
4:35 am 04:35 Cloudy 69 20.8 61 16.3 76 76 N 7 11 29.97 1015 10 16 N/A
4:55 am 04:55 Mostly Cloudy 69 20.8 62 16.6 77 77 N 6 9 29.97 1015 10 16 N/A
5:15 am 05:15 Mostly Cloudy 69 20.8 60 15.8 73 73 N 6 9 30.00 1016 10 16 N/A
5:35 am 05:35 Partly Cloudy 69 20.8 60 15.6 72 72 N 6 9 30.00 1016 10 16 N/A
5:55 am 05:55 Partly Cloudy 69 20.8 61 16 74 74 N 5 7 30.00 1016 10 16 N/A
6:15 am 06:15 Mostly Cloudy 69 20.8 61 16 74 74 N 5 7 30.00 1016 10 16 N/A
6:35 am 06:35 Mostly Cloudy 69 20.8 60 15.4 71 71 N 5 7 30.00 1016 10 16 N/A
6:55 am 06:55 Cloudy 69 20.8 59 15.2 70 70 N 7 11 30.00 1016 10 16 N/A
7:15 am 07:15 Mostly Cloudy 69 20.8 59 15.2 70 70 N 6 9 30.03 1017 10 16 N/A
7:35 am 07:35 Mostly Cloudy 67 19.5 58 14.3 72 72 N 6 9 30.03 1017 10 16 N/A
7:55 am 07:55 Partly Cloudy 69 20.4 59 14.9 71 71 N 7 11 30.03 1017 10 16 N/A
8:15 am 08:15 Partly Cloudy 69 20.8 59 14.9 69 69 N 6 9 30.03 1017 10 16 N/A
8:35 am 08:35 Partly Cloudy 69 20.8 58 14.6 68 68 NNE 6 9 30.03 1017 10 16 N/A
8:55 am 08:55 Mostly Cloudy 69 20.8 57 13.9 65 65 N 9 15 30.03 1017 10 16 N/A
9:15 am 09:15 Cloudy 69 20.8 57 14.1 66 66 N 9 15 30.06 1018 10 16 N/A
9:35 am 09:35 Mostly Cloudy 69 20.8 57 13.8 64 64 NNE 9 15 30.06 1018 10 16 N/A
9:55 am 09:55 Partly Cloudy 70 21.1 56 13.5 62 62 NE 13 20 30.06 1018 10 16 N/A
10:15 am 10:15 Sunny 73 22.5 58 14.6 61 61 NNE 10 17 30.06 1018 10 16 N/A
10:35 am 10:35 Sunny 74 23.6 59 14.8 58 58 NNE 12 19 30.06 1018 10 16 N/A
10:55 am 10:55 Sunny 74 23.6 57 13.9 55 55 NNE 12 19 30.06 1018 10 16 N/A
11:15 am 11:15 Sunny 74 23.6 56 13.3 53 53 N 13 20 30.06 1018 10 16 N/A
11:35 am 11:35 Sunny 74 23.6 54 12.3 49 49 N 14 22 30.06 1018 10 16 N/A
11:55 am 11:55 Partly Cloudy 76 24.2 54 12.1 47 47 N 9 15 30.06 1018 10 16 N/A
12:15 pm 12:15 Partly Cloudy 74 23.6 53 11.9 48 48 NNE 10 17 30.06 1018 10 16 N/A
12:35 pm 12:35 Partly Cloudy 77 25.1 51 10.7 40 40 NNE 10 17 30.03 1017 10 16 N/A
12:55 pm 12:55 Partly Cloudy 77 25.1 53 11.6 43 43 N 8 13 30.06 1018 10 16 N/A
1:15 pm 13:15 Mostly Cloudy 77 25.1 51 10.6 40 40 NNE 8 13 30.06 1018 10 16 N/A
1:35 pm 13:35 Partly Cloudy 77 25 51 10.3 40 40 N 9 15 30.06 1018 10 16 N/A
1:55 pm 13:55 Partly Cloudy 77 25.1 50 10.1 39 39 NNE 12 19 30.06 1018 10 16 N/A
2:15 pm 14:15 Partly Cloudy 74 23.6 50 10 42 42 N 7 11 30.06 1018 10 16 N/A
2:35 pm 14:35 Partly Cloudy 77 25.1 48 9.1 36 36 N 7 11 30.06 1018 10 16 N/A
2:55 pm 14:55 Partly Cloudy 77 25.1 51 10.3 39 39 NE 8 13 30.03 1017 10 16 N/A
3:15 pm 15:15 Partly Cloudy 77 25.2 49 9.5 37 37 NNW 9 15 30.03 1017 10 16 N/A
3:35 pm 15:35 Partly Cloudy 78 25.4 49 9.5 37 37 N 9 15 30.03 1017 10 16 N/A
3:55 pm 15:55 Partly Cloudy 77 25.1 52 11.2 42 42 NNE 14 22 30.03 1017 10 16 N/A
4:20 pm 16:20 Mostly Cloudy 75 23.7 51 10.8 44 44 N 10 17 30.03 1017 10 16 N/A
4:35 pm 16:35 Mostly Cloudy 74 23.6 51 10.6 44 44 N 9 15 30.03 1017 10 16 N/A
4:55 pm 16:55 Mostly Cloudy 76 24.2 52 11.2 44 44 N 9 15 30.03 1017 10 16 N/A
5:15 pm 17:15 Mostly Cloudy 76 24.5 51 10.6 42 42 N 10 17 30.03 1017 10 16 N/A
5:35 pm 17:35 Partly Cloudy 74 23.6 53 11.9 48 48 NNW 8 13 30.06 1018 10 16 N/A
5:55 pm 17:55 Sunny 77 24.8 53 11.7 44 44 N 9 15 30.03 1017 10 16 N/A
6:15 pm 18:15 Sunny 74 23.6 49 9.2 40 40 N 14 22 30.03 1017 10 16 N/A
6:35 pm 18:35 Sunny 74 23.6 49 9.2 40 40 NNW 10 17 30.06 1018 10 16 N/A
6:55 pm 18:55 Sunny 74 23.6 49 9.5 41 41 N 6 9 30.06 1018 10 16 N/A
7:15 pm 19:15 Sunny 74 23.6 50 10 42 42 N 8 13 30.06 1018 10 16 N/A
7:35 pm 19:35 Sunny 74 23.6 52 11.1 45 45 N 5 7 30.06 1018 10 16 N/A
7:55 pm 19:55 Sunny 70 21.3 52 11.2 53 53 NW 3 6 30.06 1018 10 16 N/A
8:15 pm 20:15 Clear 69 20.8 54 12.4 59 59 NW 3 6 30.06 1018 10 16 N/A
8:35 pm 20:35 Clear 69 20.8 56 13.4 63 63 NW 3 6 30.06 1018 10 16 N/A
8:55 pm 20:55 Clear 68 20.2 56 13.3 65 65 NNW 5 7 30.09 1019 10 16 N/A
9:15 pm 21:15 Clear 67 19.5 55 12.6 65 65 NNW 7 11 30.09 1019 10 16 N/A
9:35 pm 21:35 Clear 69 20.8 57 14.1 66 66 N 5 7 30.09 1019 10 16 N/A
9:55 pm 21:55 Clear 67 19.6 56 13.4 68 68 N 3 6 30.09 1019 10 16 N/A
10:15 pm 22:15 Clear 66 19.1 56 13.5 70 70 N 3 6 30.09 1019 10 16 N/A
10:35 pm 22:35 Clear 64 18 55 13 73 73 N 5 7 30.12 1020 10 16 N/A
10:55 pm 22:55 Clear 67 19.4 56 13.6 69 69 N 5 7 30.12 1020 10 16 N/A
11:15 pm 23:15 Clear 65 18.1 55 12.5 70 70 N 6 9 30.12 1020 10 16 N/A
11:35 pm 23:35 Clear 64 18 55 12.5 70 70 N 6 9 30.12 1020 10 16 N/A
11:55 pm 23:55 Clear 64 18 55 12.7 71 71 N 6 9 30.12 1020 10 16 N/A

Powered by AerisWeather